Location: Hoyos del Collado
(40.3594°N, 5.2003°W)
Time: 14:16:33
(UTC+00:00)

Cosmos 1980 Rocket - Visible Passes

Search period start: 12 July 2024 00:00
Search period end: 22 July 2024 00:00
Orbit: 828 x 850 km, 71.0° (Epoch: 11 July)

Date Brightness Start Highest point End Pass type
(mag) Time Alt. Az. Time Alt. Az. Time Alt. Az.
13 Jul 3.3 04:11:44 10° S 04:17:04 43° ESE 04:22:26 10° NE visible
14 Jul 3.4 03:55:56 10° S 04:01:12 40° ESE 04:06:29 10° NE visible
15 Jul 3.5 03:40:08 10° S 03:45:19 37° ESE 03:50:31 10° NE visible
16 Jul 3.5 03:24:21 10° SSE 03:29:26 35° ESE 03:34:33 10° NE visible
17 Jul 3.6 03:08:46 11° SSE 03:13:34 32° ESE 03:18:34 10° NE visible
18 Jul 3.7 02:53:39 14° SSE 02:57:41 30° ESE 03:02:35 10° NE visible
19 Jul 3.7 02:38:29 16° SSE 02:41:49 28° ESE 02:46:35 10° NE visible
19 Jul 2.9 04:20:16 10° SW 04:25:35 41° WNW 04:30:57 10° N visible
20 Jul 3.8 02:23:17 19° SE 02:25:57 26° ESE 02:30:35 10° NE visible
20 Jul 2.8 04:05:03 14° SW 04:09:39 43° WNW 04:15:04 10° N visible
21 Jul 3.8 02:08:02 20° SE 02:10:04 24° ESE 02:14:34 10° NE visible
21 Jul 2.7 03:49:48 18° SW 03:53:43 46° WNW 03:59:12 10° NNE visible
